CZ-6A DEB, 55198

Orbit data source: Space-Track

CZ-6A DEB, 55198 is space debris in SSO originally from a launch on Fri, 11 Nov 2022 UTC launched from the Taiyaun Space Center, China (TSC). Debris objects in space refer to the collection of defunct objects orbiting the Earth. Examples of debris include non-operational satellites, rocket bodies, and fragments generated from explosions, collisions, or faulty payload assembly.

Loading next visibility...
Identifier
55198, 2022-151VP
Orbit
SSO
Country
Flag of CNCN / PRC
Related business
Manufacturer
SAST
Mission
Spacecraft
Bus & Motor
Unknown
Mass
Unknown
Launch date (UTC)
2022-11-11 (4 years ago)
Launch vehicle
Unknown
Launch site
Taiyaun Space Center, China (TSC)
Object type
Payload
Rocket body
Debris
Shape & HBR
Unknown shape, 0.1 m
Radar Cross Section
Small (<0.1 m²)

Expand to show TLE details & history
Last TLE update: 1 day ago

TLE from 1 day ago
0 CZ-6A DEB
1 55198U 22151VP  26235.65507223  .00006577  00000-0  12788-2 0  9990
2 55198  98.6161 296.4028 0092436  99.3036 261.8630 14.60754336194498
Epoch: 2026-08-23T15:43Z
TLE epoch observation values (Epoch: 2026-08-23T15:43:18.240Z)
Latitude
-0.00008°
Longitude
88.6288°
Altitude
703.554 km
Speed
7.499 km/s
True Right ascension
19h 45m 36s
True Declination
0° 00' 00"
Sunlit
Object was in full shadow at epoch
Visualization orbit readout
Latitude
Unknown
Longitude
Unknown
Altitude
Unknown
Speed
Unknown
Apparent Right ascension
Unknown
Apparent Declination
Unknown
Sunlit
N/A
Visualization observer readout
Local Sidereal Time
12:11:38
Azimuth
Unknown
Elevation
Unknown
Doppler factor
Unknown
Orbital elements
Apogee altitude
753.154 km
Perigee altitude
622.524 km
Semi-major axis
7,065.976 km
Eccentricity
0.00924
Inclination
98.6161°
RAAN
296.4028°
Arg. of periapsis
99.3036°
True anomaly
260.8162°
Mean anomaly
261.863°
Eccentric anomaly
261.33942°
Mean motion
3.65414 °/min
Orbital period
98.52 mins
BSTAR
0.0012788
Loading maneuver chart data...
Computing Atmospheric mass density...
Loading historical data...
Loading historical data...
Loading historical data...
Loading historical data...
Loading historical data...
Loading historical data...
Loading historical data...

Documentation

Showing up to 5 results
|